Fulton, NY

5:38 PM EST on December 06, 2016 (GMT -0500)
Oswego County

Weather History for KFZY - August, 2013

Change the Weather History Date:

Tuesday, August 13, 2013

  Actual Average (KSYR) Record (KSYR)
Temperature  
Mean Temperature 67 °F 70 °F  
Max Temperature 75 °F 81 °F 96 °F (1947)
Min Temperature 61 °F 60 °F 48 °F (1941)
Degree Days  
Heating Degree Days 0 0  
Month to date heating degree days 0  
Since 1 June heating degree days 69  
Since 1 July heating degree days 8  
Cooling Degree Days 2 6  
Month to date cooling degree days 78  
Year to date cooling degree days 424  
Since 1 June cooling degree days 394  
Growing Degree Days 17 (Base 50)    
Moisture  
Dew Point 61 °F    
Average Humidity 80    
Maximum Humidity 96    
Minimum Humidity 60    
Precipitation  
Precipitation 0.14 in 0.11 in 3.26 in (1943)
Month to date precipitation 1.48  
Year to date precipitation 22.50  
Snow  
Snow 0.00 in 0.00 in 0.00 in (2002)
Month to date snowfall 0.0  
Since 1 June snowfall 0.0  
Since 1 July snowfall 0.0  
Snow Depth -    
Sea Level Pressure  
Sea Level Pressure 29.77 in    
Wind  
Wind Speed 7 mph (WSW)    
Max Wind Speed 22 mph    
Max Gust Speed 30 mph    
Visibility 9 miles    
Events Rain , Thunderstorm    
T = Trace of Precipitation, MM = Missing Value Source: NWS Daily Summary

Daily Weather History Graph

Daily Weather History Graph

Search for Another Location

Airport or City:

Trip Planner

Search our weather history database for the weather conditions in past years. The results will help you decide how hot, cold, wet, or windy it might be!

Date:

Astronomy

Aug. 13, 2013 Rise Set
Actual Time 6:08 AM EDT 8:11 PM EDT
Civil Twilight 5:37 AM EDT 8:42 PM EDT
Nautical Twilight 4:59 AM EDT 9:20 PM EDT
Astronomical Twilight 4:17 AM EDT 10:01 PM EDT
Moon 1:14 PM EDT (8/13) 11:30 PM EDT (8/13)
Length of Visible Light 15h 04m
Length of Day
14h 02m
Waxing Crescent, 41% of the Moon is Illuminated
Aug 13
Waxing Crescent
Aug 14
First Quarter
Aug 20
Full
Aug 28
Last Quarter
Sep 5
New

Hourly Weather History & Observations

Time (EDT) Temp. Dew Point Humidity Pressure Visibility Wind Dir Wind Speed Gust Speed Precip Events Conditions
1:54 AM 64.9 °F 62.1 °F 90% 29.82 in 10.0 mi South 3.5 mph - N/A   Mostly Cloudy
2:54 AM 66.0 °F 62.1 °F 87% 29.81 in 10.0 mi SSW 3.5 mph - 0.00 in Rain Light Rain
3:54 AM 66.9 °F 62.1 °F 84% 29.80 in 9.0 mi SW 4.6 mph - 0.00 in Rain Light Rain
4:54 AM 64.9 °F 63.0 °F 93% 29.78 in 5.0 mi South 8.1 mph - 0.06 in Rain Light Rain
5:54 AM 64.0 °F 62.1 °F 93% 29.79 in 10.0 mi South 6.9 mph - 0.02 in   Overcast
6:23 AM 64.4 °F 62.6 °F 94% 29.79 in 9.0 mi South 5.8 mph - 0.00 in Rain Light Rain
6:47 AM 64.4 °F 62.6 °F 94% 29.79 in 6.0 mi South 3.5 mph - 0.02 in Rain Light Rain
6:54 AM 64.0 °F 62.1 °F 93% 29.78 in 6.0 mi Calm Calm - 0.02 in Rain Light Rain
7:50 AM 64.4 °F 62.6 °F 94% 29.75 in 7.0 mi SE 3.5 mph - 0.00 in   Overcast
7:54 AM 64.0 °F 63.0 °F 96% 29.75 in 7.0 mi Calm Calm - 0.00 in   Overcast
8:54 AM 66.9 °F 64.0 °F 90% 29.75 in 10.0 mi South 3.5 mph - N/A   Overcast
9:13 AM 68.0 °F 64.4 °F 88% 29.76 in 10.0 mi SW 3.5 mph - N/A   Overcast
9:54 AM 68.0 °F 64.0 °F 87% 29.76 in 10.0 mi South 4.6 mph - N/A   Overcast
10:01 AM 68.0 °F 64.4 °F 88% 29.76 in 10.0 mi SSW 3.5 mph - N/A   Overcast
10:13 AM 69.8 °F 64.4 °F 83% 29.76 in 10.0 mi South 4.6 mph - N/A   Overcast
10:45 AM 69.8 °F 64.4 °F 83% 29.76 in 10.0 mi SSW 5.8 mph - N/A   Overcast
10:54 AM 71.1 °F 64.9 °F 81% 29.76 in 10.0 mi SSW 4.6 mph - N/A   Overcast
11:13 AM 71.6 °F 64.4 °F 78% 29.76 in 10.0 mi Calm Calm - N/A   Overcast
11:27 AM 69.8 °F 64.4 °F 83% 29.76 in 10.0 mi Variable 6.9 mph - N/A   Overcast
11:54 AM 72.0 °F 64.9 °F 78% 29.75 in 10.0 mi West 9.2 mph - N/A   Overcast
12:54 PM 71.1 °F 64.9 °F 81% 29.74 in 10.0 mi West 10.4 mph - 0.00 in Rain Light Rain
1:02 PM 71.6 °F 64.4 °F 78% 29.74 in 8.0 mi West 9.2 mph - 0.01 in Rain Light Rain
1:20 PM 69.8 °F 64.4 °F 83% 29.74 in 10.0 mi West 10.4 mph - 0.01 in Rain , Thunderstorm Light Rain
1:35 PM 69.8 °F 64.4 °F 83% 29.74 in 10.0 mi West 9.2 mph - 0.01 in Rain Light Rain
1:54 PM 69.1 °F 64.9 °F 87% 29.74 in 2.5 mi West 4.6 mph - 0.03 in Rain Light Rain
2:01 PM 69.8 °F 66.2 °F 88% 29.74 in 5.0 mi West 5.8 mph - 0.00 in Rain Light Rain
2:54 PM 73.0 °F 64.9 °F 76% 29.73 in 10.0 mi West 10.4 mph - 0.01 in   Mostly Cloudy
3:31 PM 73.4 °F 64.4 °F 73% 29.74 in 10.0 mi West 15.0 mph 20.7 mph N/A   Mostly Cloudy
3:39 PM 71.6 °F 64.4 °F 78% 29.74 in 10.0 mi WNW 15.0 mph - N/A   Mostly Cloudy
3:54 PM 72.0 °F 64.0 °F 76% 29.74 in 10.0 mi WNW 11.5 mph 19.6 mph N/A   Mostly Cloudy
4:44 PM 71.6 °F 60.8 °F 69% 29.76 in 10.0 mi WNW 21.9 mph 28.8 mph N/A   Mostly Cloudy
4:54 PM 71.1 °F 61.0 °F 70% 29.75 in 10.0 mi WNW 17.3 mph 25.3 mph N/A   Mostly Cloudy
5:22 PM 69.8 °F 60.8 °F 73% 29.76 in 10.0 mi West 15.0 mph 26.5 mph N/A   Overcast
5:31 PM 69.8 °F 59.0 °F 68% 29.76 in 10.0 mi WNW 15.0 mph 26.5 mph N/A   Overcast
5:42 PM 69.8 °F 57.2 °F 64% 29.76 in 10.0 mi West 21.9 mph 29.9 mph N/A   Mostly Cloudy
5:54 PM 69.1 °F 57.0 °F 65% 29.76 in 10.0 mi WNW 18.4 mph 28.8 mph N/A   Mostly Cloudy
6:54 PM 66.9 °F 54.0 °F 63% 29.78 in 10.0 mi WNW 17.3 mph 28.8 mph N/A   Partly Cloudy
7:54 PM 63.0 °F 51.1 °F 65% 29.81 in 10.0 mi West 10.4 mph 19.6 mph N/A   Scattered Clouds
8:54 PM 63.0 °F 48.9 °F 60% 29.81 in 10.0 mi West 11.5 mph 24.2 mph N/A   Overcast
9:54 PM 62.1 °F 48.0 °F 60% 29.83 in 10.0 mi WNW 15.0 mph 23.0 mph N/A   Overcast
10:54 PM 61.0 °F 48.0 °F 62% 29.82 in 10.0 mi WNW 12.7 mph 19.6 mph N/A   Overcast
11:54 PM 61.0 °F 48.0 °F 62% 29.82 in 10.0 mi West 13.8 mph 23.0 mph N/A   Overcast